This demonstration page uses our WeatherBlox Daily Observations layout. Learn more.

Left ArrowRight Arrow

34.16533, -84.80231

Hourly Observations for May 8, 2017

Temp ( °F °C ) Dew Point ( °F °C ) Humidity (%) Winds ( mph kmh ) Pressure ( in mb ) Visibility ( mi km ) Precip ( " mm )
12:53 am 00:53 Clear 47 8.3 46 7.8 97 97 Calm 30.02 1017 10 16 0.00 0.00
1:53 am 01:53 Clear 46 7.8 46 7.8 100 100 Calm 30.03 1017 10 16 0.00 0.00
2:53 am 02:53 Clear 45 7.2 45 7.2 100 100 Calm 30.03 1017 10 16 0.00 0.00
3:53 am 03:53 Clear 45 7.2 45 7.2 100 100 Calm 30.04 1017 10 16 0.00 0.00
4:53 am 04:53 Clear 43 6.1 43 6.1 100 100 Calm 30.05 1018 10 16 0.00 0.00
5:53 am 05:53 Clear 42 5.6 42 5.6 100 100 Calm 30.06 1018 10 16 0.00 0.00
6:53 am 06:53 Sunny 42 5.6 42 5.6 100 100 Calm 30.09 1019 10 16 0.00 0.00
7:53 am 07:53 Sunny 48 8.9 47 8.3 96 96 Calm 30.10 1019 10 16 0.00 0.00
8:53 am 08:53 Sunny 55 12.8 49 9.4 80 80 Calm 30.11 1020 10 16 0.00 0.00
9:53 am 09:53 Sunny 60 15.6 51 10.6 72 72 W 3 6 30.11 1020 10 16 0.00 0.00
10:53 am 10:53 Sunny 65 18.3 50 10 59 59 VRB 3 6 30.13 1020 10 16 0.00 0.00
11:53 am 11:53 Sunny 69 20.6 48 8.9 47 47 NNW 7 11 30.13 1020 10 16 0.00 0.00
12:53 pm 12:53 Sunny 71 21.7 49 9.4 46 46 N 8 13 30.12 1020 10 16 0.00 0.00
1:53 pm 13:53 Sunny 73 22.8 50 10 44 44 NNW 8 13 30.10 1019 10 16 0.00 0.00
2:53 pm 14:53 Sunny 75 23.9 51 10.6 43 43 NNW 5 7 30.08 1019 10 16 0.00 0.00
3:53 pm 15:53 Sunny 77 25 53 11.7 43 43 VRB 5 7 30.06 1018 10 16 0.00 0.00
4:53 pm 16:53 Sunny 77 25 51 10.6 40 40 Calm 30.04 1017 10 16 0.00 0.00
5:53 pm 17:53 Sunny 77 25 51 10.6 40 40 Calm 30.03 1017 10 16 0.00 0.00
6:53 pm 18:53 Sunny 77 25 50 10 39 39 Calm 30.01 1016 10 16 0.00 0.00
7:53 pm 19:53 Sunny 72 22.2 53 11.7 52 52 Calm 30.02 1017 10 16 0.00 0.00
8:53 pm 20:53 Clear 62 16.7 57 13.9 84 84 Calm 30.03 1017 10 16 0.00 0.00
9:53 pm 21:53 Clear 61 16.1 55 12.8 81 81 Calm 30.03 1017 10 16 0.00 0.00
10:53 pm 22:53 Clear 59 15 56 13.3 90 90 Calm 30.04 1017 10 16 0.00 0.00
11:53 pm 23:53 Clear 56 13.3 55 12.8 97 97 Calm 30.05 1018 10 16 0.00 0.00

Powered by AerisWeather